Regional Weather Roundup
Issued by NWS

Current Version | Previous Version | Text Only | Print | Product List | Glossary On
Versions: 1 2 3 4 5 6 7 8 9 10 11 12 13 14 15 16 17 18 19 20 21 22 23 24 25 26 27 28 29 30 31 32 33 34 35 36 37 38 39 40 41 42 43 44 45 46 47 48 49 50
000
ASUS44 KBMX 020810
RWRAL

ALABAMA REGIONAL WEATHER ROUNDUP
NATIONAL WEATHER SERVICE BIRMINGHAM AL
300 AM CDT SAT AUG 02 2014

NOTE: "FAIR" INDICATES FEW OR NO CLOUDS BELOW 12,000 FEET
WITH NO SIGNIFICANT WEATHER AND/OR OBSTRUCTIONS TO VISIBILITY.

THE REMARK "TC" DENOTES TEMPERATURE IN DEGREES CELSIUS.

ALZ001>011-014-016>018-020-020900-
NORTH ALABAMA

CITY           SKY/WX    TMP DP  RH WIND       PRES   REMARKS
MUSCLE SHOALS  CLOUDY    72  68  87 CALM      30.04S
HUNTSVILLE     CLOUDY    74  67  78 E5        30.04R
DECATUR        LGT RAIN  70  68  93 CALM      30.04S
HALEYVILLE     FAIR      69  68  97 CALM      30.07R
GADSDEN        MOCLDY    72  66  83 E3        30.04F
$$

ALZ012-013-022-023-030>036-040>044-020900-
WEST CENTRAL ALABAMA

CITY           SKY/WX    TMP DP  RH WIND       PRES   REMARKS
TUSCALOOSA     CLOUDY    76  71  85 CALM      30.01R HAZE
$$

ALZ015-024>027-033>036-040>044-020900-
CENTRAL ALABAMA

CITY           SKY/WX    TMP DP  RH WIND       PRES   REMARKS
BIRMINGHAM     MOCLDY    75  68  78 E3        30.05S
MONTGOMERY     CLOUDY    75  70  84 E5        30.00F
SHELBY CO ARPT LGT RAIN  74  70  87 VRB3      30.03S
MAXWELL AFB    CLOUDY    74  72  92 NE3       30.01S
GREENVILLE     FAIR      74  70  87 CALM      29.99F
$$

ALZ019-021-028-029-037-038-045>048-020900-
EAST CENTRAL ALABAMA

CITY           SKY/WX    TMP DP  RH WIND       PRES   REMARKS
ANNISTON       CLOUDY    72  68  87 E3        30.05S
ALEXANDER CITY CLOUDY    76  69  81 CALM      30.04S
AUBURN         CLOUDY    68  64  88 NE6       30.06S
$$

ALZ051>064-020900-
SOUTHWEST ALABAMA

CITY           SKY/WX    TMP DP  RH WIND       PRES   REMARKS
MOBILE         PTCLDY    72  71  97 CALM      29.99S
BROOKLEY FIELD CLEAR     73  71  93 NW5       29.99S
EVERGREEN      CLOUDY    75  72  90 CALM      29.99F
$$

ALZ049-050-065>069-020900-
SOUTHEAST ALABAMA

CITY           SKY/WX    TMP DP  RH WIND       PRES   REMARKS
DOTHAN         CLOUDY    73  70  90 NE6       30.02F
OZARK          CLOUDY    73  71  92 NE6       29.98F
TROY           CLOUDY    73  70  90 CALM      30.00F
EUFAULA        FAIR      74  69  85 NE3       29.99S
$$



USA.gov is the U.S. government's official web portal to all federal, state and local government web resources and services.